FW5763 Weather Reports


Display with metric or nautical units.
time (UTC)temp
F
wind
direction
speed
MPH
gust
MPH
rain 1hr
in
rain 24hr
in
rain mn
in
humidity
%
barometer
mb
20260505152117 54 312 1.0 2.0 0.00 0.00 0.00 80 1016.3
20260505151116 53 296 1.0 1.0 0.00 0.00 0.00 81 1016.1
20260505150115 53 344 1.0 2.0 0.00 0.00 0.00 81 1016.1
20260505140115 52 313 1.0 2.0 0.00 0.00 0.00 82 1015.8
20260505130115 52 312 1.0 2.0 0.00 0.00 0.00 82 1015.4
20260505124116 52 309 2.0 3.0 0.00 0.00 0.00 80 1015.4
20260505123116 52 306 1.0 2.0 0.00 0.00 0.00 80 1015.5
20260505122135 52 296 0.0 2.0 0.00 0.00 0.00 80 1015.5
20260505121116 53 302 0.0 2.0 0.00 0.00 0.00 80 1015.5
20260505120117 53 308 1.0 3.0 0.00 0.00 0.00 79 1015.6
20260505115116 53 298 1.0 1.0 0.00 0.00 0.00 79 1015.6
20260505114117 53 312 2.0 3.0 0.00 0.00 0.00 79 1015.5
20260505113117 53 5 0.0 1.0 0.00 0.00 0.00 79 1015.5
20260505112136 53 315 1.0 3.0 0.00 0.00 0.00 79 1015.4
20260505111116 53 328 1.0 2.0 0.00 0.00 0.00 80 1015.4
20260505110117 53 0.0 1.0 0.00 0.00 0.00 80 1015.4
20260505102116 53 347 1.0 2.0 0.00 0.00 0.00 81 1015.4
20260505101116 53 313 2.0 3.0 0.00 0.00 0.00 81 1015.3
20260505100116 53 346 0.0 2.0 0.00 0.00 0.00 81 1015.5
20260505095116 53 34 1.0 1.0 0.00 0.00 0.00 81 1015.5
20260505094116 54 307 1.0 3.0 0.00 0.00 0.00 81 1015.5
20260505093116 54 311 1.0 2.0 0.00 0.00 0.00 80 1015.6
20260505092116 54 322 1.0 2.0 0.00 0.00 0.00 80 1015.7
20260505091116 54 309 1.0 2.0 0.00 0.00 0.00 80 1015.9
20260505090115 54 2 2.0 4.0 0.00 0.00 0.00 80 1016.0
20260505085116 54 309 0.0 1.0 0.00 0.00 0.00 80 1015.9
20260505084136 54 300 1.0 2.0 0.00 0.00 0.00 80 1015.8
20260505083116 54 8 2.0 3.0 0.00 0.00 0.00 80 1016.0
20260505082115 54 298 2.0 4.0 0.00 0.00 0.00 80 1016.0
20260505081116 53 298 2.0 4.0 0.00 0.00 0.00 80 1016.1
20260505080116 53 357 0.0 2.0 0.00 0.00 0.00 81 1016.2
20260505075117 53 5 0.0 1.0 0.00 0.00 0.00 81 1016.2
20260505074116 53 5 1.0 1.0 0.00 0.00 0.00 81 1016.2
20260505073116 53 0.0 0.0 0.00 0.00 0.00 81 1016.0
20260505072116 53 0.0 0.0 0.00 0.00 0.00 81 1016.0
20260505071116 53 5 1.0 2.0 0.00 0.00 0.00 80 1015.9
20260505070116 53 22 0.0 2.0 0.00 0.00 0.00 80 1015.9
20260505065117 53 0.0 0.0 0.00 0.00 0.00 79 1015.8
20260505064116 54 340 1.0 2.0 0.00 0.00 0.00 77 1015.7
20260505063116 54 271 1.0 1.0 0.00 0.00 0.00 77 1015.7
20260505062116 55 271 0.0 2.0 0.00 0.00 0.00 76 1015.6
20260505061116 55 263 1.0 2.0 0.00 0.00 0.00 75 1015.6
20260505060116 55 0.0 0.0 0.00 0.00 0.00 75 1015.7
20260505055116 55 302 0.0 1.0 0.00 0.00 0.00 75 1015.7
20260505054116 55 286 2.0 3.0 0.00 0.00 0.00 75 1015.9
20260505053116 55 317 1.0 2.0 0.00 0.00 0.00 74 1016.0
20260505052116 56 317 0.0 1.0 0.00 0.00 0.00 73 1016.1
20260505051116 56 352 1.0 2.0 0.00 0.00 0.00 72 1016.2
20260505050116 56 0.0 0.0 0.00 0.00 0.00 71 1016.0
20260505041116 57 317 1.0 4.0 0.00 0.00 0.00 71 1015.4
20260505040136 57 308 2.0 3.0 0.00 0.00 0.00 71 1015.2
20260505035116 57 313 2.0 4.0 0.00 0.00 0.00 71 1015.2
20260505034116 57 318 1.0 2.0 0.00 0.00 0.00 69 1015.1
20260505033136 57 265 0.0 2.0 0.00 0.00 0.00 68 1015.0
20260505032116 58 247 1.0 2.0 0.00 0.00 0.00 67 1015.0
20260505031116 58 244 1.0 2.0 0.00 0.00 0.00 67 1015.1
20260505030116 58 240 2.0 3.0 0.00 0.00 0.00 65 1015.1
20260505025117 58 242 2.0 3.0 0.00 0.00 0.00 64 1015.1
20260505024116 59 237 3.0 4.0 0.00 0.00 0.00 63 1015.2
20260505023116 59 252 2.0 5.0 0.00 0.00 0.00 62 1015.0
20260505022116 60 266 3.0 4.0 0.00 0.00 0.00 60 1015.0
20260505021116 61 241 2.0 6.0 0.00 0.00 0.00 59 1014.9
20260505020116 61 223 2.0 3.0 0.00 0.00 0.00 59 1014.9
20260505015116 61 227 3.0 6.0 0.00 0.00 0.00 59 1014.9
20260505014116 61 242 4.0 5.0 0.00 0.00 0.00 57 1015.0
20260505013116 61 222 4.0 7.0 0.00 0.00 0.00 57 1015.1
20260505012116 61 249 4.0 7.0 0.00 0.00 0.00 57 1015.2
20260505011116 62 206 5.0 7.0 0.00 0.00 0.00 57 1015.2
20260505010116 62 222 4.0 7.0 0.00 0.00 0.00 56 1015.3
20260505005136 62 228 2.0 3.0 0.00 0.00 0.00 55 1015.4
20260505004116 62 228 5.0 10.0 0.00 0.00 0.00 51 1015.5
20260505003116 63 239 3.0 6.0 0.00 0.00 0.00 53 1015.4
20260505002116 63 199 5.0 15.0 0.00 0.00 0.00 53 1015.5
20260505001136 64 260 5.0 10.0 0.00 0.00 0.00 54 1015.3
20260505000116 64 244 7.0 11.0 0.00 0.00 0.00 52 1015.2
20260504235116 63 218 6.0 10.0 0.00 0.00 0.00 54 1015.3
20260504234115 64 219 4.0 9.0 0.00 0.00 0.00 55 1015.3
20260504233116 63 234 5.0 9.0 0.00 0.00 0.00 50 1015.4
20260504232116 64 213 6.0 11.0 0.00 0.00 0.00 54 1015.3
20260504231116 63 238 6.0 12.0 0.00 0.00 0.00 55 1015.4
20260504230116 62 239 6.0 10.0 0.00 0.00 0.00 58 1015.4
20260504225115 63 243 10.0 14.0 0.00 0.00 0.00 57 1015.3
20260504224116 63 217 3.0 6.0 0.00 0.00 0.00 59 1015.3
20260504223115 64 210 5.0 10.0 0.00 0.00 0.00 55 1015.3
20260504222116 64 194 5.0 9.0 0.00 0.00 0.00 55 1015.3
20260504221115 64 232 4.0 7.0 0.00 0.00 0.00 56 1015.6
20260504220116 63 249 3.0 11.0 0.00 0.00 0.00 54 1015.7
20260504215115 63 248 9.0 12.0 0.00 0.00 0.00 56 1016.1
20260504214115 63 217 6.0 10.0 0.00 0.00 0.00 60 1016.0
20260504213116 63 189 7.0 12.0 0.00 0.00 0.00 60 1016.0
20260504212116 62 256 6.0 10.0 0.00 0.00 0.00 62 1016.1
20260504211116 62 239 5.0 10.0 0.00 0.00 0.00 65 1016.3
20260504210116 62 204 6.0 10.0 0.00 0.00 0.00 66 1016.4
20260504205116 62 230 8.0 10.0 0.00 0.00 0.00 66 1016.4
20260504204116 62 219 5.0 8.0 0.00 0.00 0.00 68 1016.3
20260504203115 61 239 7.0 9.0 0.00 0.00 0.00 68 1016.4
20260504202115 61 202 7.0 14.0 0.00 0.00 0.00 71 1016.4
20260504201116 61 212 5.0 9.0 0.00 0.00 0.00 72 1016.5
20260504200116 61 193 6.0 13.0 0.00 0.00 0.00 71 1016.6
20260504195115 61 189 6.0 9.0 0.00 0.00 0.00 71 1016.6
20260504194115 60 182 3.0 10.0 0.00 0.00 0.00 73 1016.6
20260504193115 60 178 6.0 9.0 0.00 0.00 0.00 72 1016.6
20260504192136 60 192 7.0 12.0 0.00 0.00 0.00 74 1016.6
20260504191116 60 220 6.0 12.0 0.00 0.00 0.00 73 1016.7
20260504190115 60 227 7.0 11.0 0.00 0.00 0.00 73 1016.6
20260504185115 58 204 4.0 11.0 0.00 0.00 0.00 74 1016.7
20260504184115 59 215 8.0 12.0 0.00 0.00 0.00 73 1016.7
20260504183155 60 207 5.0 9.0 0.00 0.00 0.00 71 1016.7
20260504182116 60 172 2.0 4.0 0.00 0.00 0.00 73 1016.6
20260504181115 59 158 5.0 8.0 0.00 0.00 0.00 75 1016.5
20260504180115 58 179 3.0 10.0 0.00 0.00 0.00 75 1016.5
20260504175115 58 240 8.0 13.0 0.00 0.00 0.00 75 1016.4
20260504174115 58 205 3.0 8.0 0.00 0.00 0.00 77 1016.1
20260504173155 57 207 6.0 11.0 0.00 0.00 0.00 76 1016.1
20260504172115 58 139 4.0 8.0 0.00 0.00 0.00 76 1016.1
20260504171115 57 190 4.0 10.0 0.00 0.00 0.00 79 1015.9
20260504170115 57 218 2.0 4.0 0.00 0.00 0.00 79 1016.0
20260504160115 57 71 3.0 6.0 0.00 0.00 0.00 80 1016.1